User: anonymous   Login
Location: Unspecified
(0.0000°N, 0.0000°E)
Time: 21:32:20
(UTC+00:00)
Language:

SMS 1 - Orbit

View from above orbital plane
View from above orbital plane
View from above satellite
View from above satellite

Ground track
Ground track

The orbit data is extracted from the following two-line orbital elements,

1  7298U 74033A   18047.45604862 -.00000200 +00000-0 +00000-0 0  9991
2  7298 011.5589 303.0134 0021482 345.2673 013.6967 00.98614529089865
Epoch (UTC): 16 February 2018 10:56:42
Eccentricity: 0.0021482
inclination: 11.5589°
perigee height: 36166 km
apogee height: 36349 km
right ascension of ascending node: 303.0134°
argument of perigee: 345.2673°
revolutions per day: 0.98614529
mean anomaly at epoch: 13.6967°
orbit number at epoch: 8986

The dashed part of the orbit path shows where the satellite is in the earth's shadow,  

DLR